Meteo Giornale » Osservazioni meteo Svizzera » Bern-Belp

ore: 13:20 - Osservazioni Meteo Bern-Belp
Lat. 46° 55' N Lon. 7° 30' E Alt. 505 metri s.l.m.

coperto Europe/Zurich

18 °C

Coperto

Temp. 24 Ore

9 °C

21 °C

Nord-Ovest

11.1 Km/h

Dew point 14 °C

Umidità 77 %

Visibilità  10 Km

Il sole sorge alle ore 06:36

Il sole tramonta alle ore 20:28

Data e Ora Cielo e Fenomeni T °C DP °C Um. % Pres. hPa Vis. km Vento km/h
Oggi h: 13:20 coperto Coperto 18 14 77 1024 10 NO 11.1
Oggi h: 12:50 coperto Coperto 17 13 77 1025 10 N 1.8
Oggi h: 12:20 coperto Coperto 17 14 82 1025 10 N 3.7
Oggi h: 11:50 coperto Coperto 17 13 77 1025 10 N 3.7
Oggi h: 11:20 molto_nuvoloso Molto Nuvoloso 16 14 87 1025 10 N 3.7
Oggi h: 10:50 coperto Coperto 16 14 87 1025 10 N 0
Oggi h: 10:20 molto_nuvoloso Molto Nuvoloso 15 14 93 1025 6 N 1.8
Oggi h: 09:50 coperto Coperto 14 14 100 1025 6 N 0
Oggi h: 09:20 coperto Coperto 14 14 100 1025 5 N 0
Oggi h: 08:50 coperto Coperto 13 13 100 1025 4 N 0
Oggi h: 08:20 foschia Foschia 13 13 100 1025 2 N 0
Oggi h: 07:50 foschia Foschia 12 12 100 1025 1 N 1.8
Oggi h: 07:20 foschia Foschia 12 12 100 1025 0.8 N 1.8
Oggi h: 06:50 nebbia Nebbia 12 11 93 1025 0.9 N 1.8
Oggi h: 06:20 foschia Foschia 11 11 100 1025 4 N 1.8
Oggi h: 05:50 nebbia Nebbia 10 10 100 1025 0.25 N 0
Oggi h: 05:20 nebbia Nebbia 10 10 100 1025 0.15 N 0
Oggi h: 04:50 nebbia Nebbia 9 9 100 1025 0.45 N 1.8
Oggi h: 04:20 nebbia Nebbia 10 10 100 1025 5 N 1.8
Oggi h: 03:50 nebbia Nebbia 10 10 100 1025 0.25 N 1.8
Oggi h: 03:20 nebbia Nebbia 11 11 100 1025 5 N 1.8
Oggi h: 02:50 nebbia Banco di Nebbia 11 11 100 1025 0.9 N 1.8
Oggi h: 02:20 poco_nuvoloso Poco Nuvoloso 12 12 100 1025 6 N 1.8
Oggi h: 01:50 nebbia Nebbia 12 11 93 1025 10 N 1.8
Oggi h: 01:20 nebbia Nebbia 11 11 100 1025 0.2 N 1.8
Oggi h: 00:50 nebbia Nebbia 12 12 100 1025 0.35 N 1.8
Oggi h: 00:20 sereno Sereno 12 12 100 1025 10 N 1.8
Ieri h: 23:50 foschia Foschia 13 12 93 1025 2 N 1.8
Ieri h: 23:20 sereno Sereno 13 13 100 1025 8 N 1.8
Ieri h: 22:50 sereno Sereno 13 12 93 1025 6 N 3.7
Ieri h: 22:20 sereno Sereno 15 14 93 1025 10 N 3.7
Ieri h: 21:50 sereno Sereno 15 13 87 1025 10 N 1.8
Ieri h: 21:20 sereno Sereno 17 13 77 1025 10 N 5.5
Ieri h: 20:50 poco_nuvoloso Poco Nuvoloso 18 14 77 1025 10 N 5.5
Ieri h: 20:20 poco_nuvoloso Poco Nuvoloso 18 14 77 1025 10 N/NE 7.4
Ieri h: 19:50 poco_nuvoloso Poco Nuvoloso 19 14 72 1025 10 N 5.5
Ieri h: 19:20 sereno Sereno 20 14 68 1024 10 N 7.4
Ieri h: 18:50 sereno Sereno 20 14 68 1024 10 N 5.5
Ieri h: 18:20 nuvoloso Nuvoloso 20 15 72 1024 10 NE 7.4
Ieri h: 17:50 nuvoloso Nuvoloso 21 15 68 1024 10 N/NE 7.4
Ieri h: 17:20 nuvoloso Nuvoloso 21 14 64 1024 10 O/NO 9.3
Ieri h: 16:50 nuvoloso Nuvoloso 20 14 68 1024 10 O 7.4
Ieri h: 16:20 molto_nuvoloso Molto Nuvoloso 20 15 72 1025 10 O/NO 11.1
Ieri h: 15:50 molto_nuvoloso Molto Nuvoloso 20 14 68 1024 10 N/NO 9.3
Ieri h: 15:20 molto_nuvoloso Molto Nuvoloso 20 14 68 1025 10 O/NO 9.3
Ieri h: 14:50 molto_nuvoloso Molto Nuvoloso 19 14 72 1025 10 NO 11.1
Ieri h: 14:20 molto_nuvoloso Molto Nuvoloso 19 15 77 1025 10 NO 13
Ieri h: 13:50 molto_nuvoloso Molto Nuvoloso 19 14 72 1025 10 O/NO 14.8